TimeCXT,TemperatureF,Dew PointF,Humidity,Sea Level PressureIn,VisibilityMPH,Wind Direction,Wind SpeedMPH,Gust SpeedMPH,PrecipitationIn,Events,Conditions,WindDirDegrees,DateUTC
12:00 AM,74,71,89,29.99,,SE,11.5,,,,Overcast,130,2012-10-02 17:00:00
12:00 AM,73.4,71.6,94,30.01,6.2,SE,11.5,-,N/A,,Overcast,130,2012-10-02 17:00:00
1:00 AM,74,71,89,29.97,,SE,10.4,,,,,130,2012-10-02 18:00:00
1:00 AM,73.4,71.6,94,30.01,6.2,SE,10.4,-,N/A,,Mostly Cloudy,130,2012-10-02 18:00:00
2:00 AM,73.4,71.6,94,29.98,6.2,SE,9.2,-,N/A,,Mostly Cloudy,140,2012-10-02 19:00:00
3:00 AM,74,71,88,29.94,,SE,10.4,,,,Overcast,130,2012-10-02 20:00:00
3:00 AM,73.4,71.6,94,29.98,6.2,SE,10.4,-,N/A,,Overcast,130,2012-10-02 20:00:00
4:00 AM,74,71,88,29.94,,SE,10.4,,,,,130,2012-10-02 21:00:00
4:00 AM,73.4,71.6,94,29.98,6.2,SE,10.4,-,N/A,,Overcast,130,2012-10-02 21:00:00
5:00 AM,73.4,71.6,94,29.98,6.2,SE,10.4,-,N/A,,Overcast,130,2012-10-02 22:00:00
6:00 AM,74,72,90,29.96,,SE,9.2,,,,Overcast,130,2012-10-02 23:00:00
6:00 AM,73.4,71.6,94,29.98,6.2,SE,9.2,-,N/A,,Overcast,130,2012-10-02 23:00:00
7:00 AM,74,71,86,29.98,,SE,8.1,,,,,140,2012-10-03 00:00:00
7:00 AM,75.2,71.6,89,30.01,6.2,SE,8.1,-,N/A,,Overcast,140,2012-10-03 00:00:00
8:00 AM,75.2,71.6,89,30.01,6.2,SE,12.7,-,N/A,,Overcast,130,2012-10-03 01:00:00
9:00 AM,75,71,84,29.99,,SE,11.5,,,,Overcast,140,2012-10-03 02:00:00
9:00 AM,75.2,71.6,89,30.04,6.2,SE,11.5,-,N/A,,Overcast,140,2012-10-03 02:00:00
10:00 AM,75,71,85,29.99,,SE,11.5,,,,,130,2012-10-03 03:00:00
10:00 AM,75.2,71.6,89,30.04,6.2,SE,11.5,-,N/A,,Overcast,130,2012-10-03 03:00:00
11:00 AM,77.0,71.6,83,30.01,6.2,SE,15.0,-,N/A,,Overcast,130,2012-10-03 04:00:00
12:00 PM,78,70,71,29.95,,SE,15.0,,,,Overcast,130,2012-10-03 05:00:00
12:00 PM,77.0,69.8,78,29.98,6.2,SE,15.0,-,N/A,,Overcast,130,2012-10-03 05:00:00
1:00 PM,77,70,74,29.93,,SE,12.7,,,,,140,2012-10-03 06:00:00
1:00 PM,77.0,69.8,78,29.98,6.2,SE,12.7,-,N/A,,Overcast,140,2012-10-03 06:00:00
2:00 PM,77.0,69.8,78,29.95,6.2,SE,12.7,-,N/A,,Overcast,140,2012-10-03 07:00:00
3:00 PM,76,70,77,29.91,,SE,11.5,,,,Overcast,140,2012-10-03 08:00:00
3:00 PM,75.2,69.8,83,29.95,6.2,SE,11.5,-,N/A,,Overcast,140,2012-10-03 08:00:00
4:00 PM,75,70,79,29.90,,SE,12.7,,,,,140,2012-10-03 09:00:00
4:00 PM,75.2,69.8,83,29.92,6.2,SE,12.7,-,N/A,,Overcast,140,2012-10-03 09:00:00
5:00 PM,75.2,69.8,83,29.92,6.2,SE,13.8,-,N/A,,Overcast,130,2012-10-03 10:00:00
6:00 PM,74,69,81,29.91,,SE,12.7,,,,Overcast,140,2012-10-03 11:00:00
6:00 PM,73.4,69.8,88,29.95,6.2,SE,12.7,-,N/A,,Mostly Cloudy,140,2012-10-03 11:00:00
7:00 PM,74,69,80,29.93,,SE,10.4,,,,,140,2012-10-03 12:00:00
7:00 PM,75.2,69.8,83,29.98,6.2,SE,10.4,-,N/A,,Mostly Cloudy,140,2012-10-03 12:00:00
8:00 PM,73.4,69.8,88,29.98,6.2,SE,11.5,-,N/A,,Overcast,130,2012-10-03 13:00:00
9:00 PM,74,69,79,29.95,,SE,9.2,,,,Overcast,140,2012-10-03 14:00:00
9:00 PM,73.4,69.8,88,29.98,6.2,SE,9.2,-,N/A,,Overcast,140,2012-10-03 14:00:00
10:00 PM,74,70,82,29.95,,SE,11.5,,,,,130,2012-10-03 15:00:00
10:00 PM,73.4,69.8,88,29.98,6.2,SE,11.5,-,N/A,,Overcast,130,2012-10-03 15:00:00
11:00 PM,73.4,69.8,88,29.98,6.2,SE,11.5,-,N/A,,Overcast,130,2012-10-03 16:00:00